TimeCDT,TemperatureF,Dew PointF,Humidity,Sea Level PressureIn,VisibilityMPH,Wind Direction,Wind SpeedMPH,Gust SpeedMPH,PrecipitationIn,Events,Conditions,WindDirDegrees,DateUTC
12:53 AM,54.0,48.9,83,30.16,10.0,Calm,Calm,-,N/A,,Clear,0,2014-04-11 05:53:00
1:53 AM,52.0,48.0,86,30.14,10.0,Calm,Calm,-,N/A,,Clear,0,2014-04-11 06:53:00
2:53 AM,51.1,48.0,89,30.12,10.0,Calm,Calm,-,N/A,,Clear,0,2014-04-11 07:53:00
3:53 AM,50.0,48.0,93,30.13,7.0,Calm,Calm,-,N/A,,Clear,0,2014-04-11 08:53:00
4:34 AM,50.0,46.9,89,30.15,10.0,Calm,Calm,-,N/A,,Mostly Cloudy,0,2014-04-11 09:34:00
4:53 AM,50.0,48.0,93,30.14,6.0,Calm,Calm,-,N/A,,Overcast,0,2014-04-11 09:53:00
5:18 AM,51.1,48.9,92,30.15,8.0,Calm,Calm,-,N/A,,Mostly Cloudy,0,2014-04-11 10:18:00
5:53 AM,48.9,48.0,97,30.14,5.0,Calm,Calm,-,N/A,,Scattered Clouds,0,2014-04-11 10:53:00
6:53 AM,52.0,50.0,93,30.17,7.0,Calm,Calm,-,N/A,,Overcast,0,2014-04-11 11:53:00
7:53 AM,55.9,54.0,93,30.19,3.0,Calm,Calm,-,N/A,,Mostly Cloudy,0,2014-04-11 12:53:00
8:01 AM,55.9,54.0,93,30.20,2.0,Calm,Calm,-,N/A,,Mostly Cloudy,0,2014-04-11 13:01:00
8:20 AM,57.9,55.0,90,30.19,3.0,SSE,5.8,-,N/A,,Scattered Clouds,150,2014-04-11 13:20:00
8:53 AM,60.1,57.0,90,30.19,5.0,SSE,5.8,-,N/A,,Clear,150,2014-04-11 13:53:00
9:53 AM,64.9,59.0,81,30.20,10.0,South,8.1,-,N/A,,Clear,170,2014-04-11 14:53:00
10:53 AM,69.1,57.0,65,30.21,10.0,SSW,11.5,17.3,N/A,,Mostly Cloudy,210,2014-04-11 15:53:00
11:53 AM,72.0,55.9,57,30.20,10.0,SSW,8.1,-,N/A,,Scattered Clouds,200,2014-04-11 16:53:00
12:53 PM,73.9,55.0,52,30.17,10.0,South,12.7,17.3,N/A,,Scattered Clouds,180,2014-04-11 17:53:00
1:53 PM,75.9,55.0,48,30.15,10.0,South,12.7,20.7,N/A,,Mostly Cloudy,170,2014-04-11 18:53:00
2:53 PM,73.9,54.0,50,30.12,10.0,SSE,12.7,-,N/A,,Overcast,150,2014-04-11 19:53:00
3:53 PM,73.9,54.0,50,30.10,10.0,SSE,9.2,-,N/A,,Mostly Cloudy,150,2014-04-11 20:53:00
4:53 PM,75.9,54.0,46,30.08,10.0,SSE,13.8,-,N/A,,Mostly Cloudy,160,2014-04-11 21:53:00
5:53 PM,73.9,55.9,53,30.07,10.0,South,8.1,-,N/A,,Clear,180,2014-04-11 22:53:00
6:53 PM,72.0,57.0,59,30.08,10.0,South,5.8,-,N/A,,Mostly Cloudy,170,2014-04-11 23:53:00
7:53 PM,66.0,57.0,73,30.08,10.0,SSE,3.5,-,N/A,,Clear,160,2014-04-12 00:53:00
8:53 PM,64.0,57.0,78,30.09,10.0,SSE,5.8,-,N/A,,Clear,160,2014-04-12 01:53:00
9:53 PM,64.0,57.9,80,30.11,10.0,SSE,9.2,-,N/A,,Clear,150,2014-04-12 02:53:00
10:53 PM,63.0,60.1,90,30.12,10.0,SSE,8.1,-,N/A,,Clear,150,2014-04-12 03:53:00
11:18 PM,63.0,61.0,93,30.12,9.0,SSE,9.2,-,N/A,,Partly Cloudy,150,2014-04-12 04:18:00
11:45 PM,63.0,61.0,93,30.13,8.0,SSE,9.2,-,N/A,,Mostly Cloudy,160,2014-04-12 04:45:00
11:53 PM,64.0,61.0,90,30.12,7.0,SSE,9.2,-,N/A,,Mostly Cloudy,160,2014-04-12 04:53:00